This is the latest recevied weather packets stored in our database for station/object AB4CZ-1. If no packets are shown the sender has not sent any weather packets the latest 1 day(s).
| Time | Temp. | Humidity | Pressure | Rain* | Wind** | Luminosity | Snow |
|---|---|---|---|---|---|---|---|
| 1778039005 | 21.11° C | 53% | 1014 hPa | 0 mm | 0 m/s | - | - |
| 1778038894 | 21.11° C | 53% | 1014 hPa | 0 mm | 0 m/s | - | - |
| 1778038593 | 21.67° C | 53% | 1014.2 hPa | 0 mm | 0 m/s | - | - |
| 1778038306 | 21.67° C | 54% | 1014.1 hPa | 0 mm | 0 m/s | - | - |
| 1778037993 | 21.11° C | 54% | 1014.1 hPa | 0 mm | 0 m/s | - | - |
| 1778037693 | 21.11° C | 55% | 1014.2 hPa | 0 mm | 0 m/s | - | - |
| 1778037392 | 21.11° C | 56% | 1014.2 hPa | 0 mm | 0 m/s | - | - |
| 1778037093 | 20.56° C | 57% | 1014.2 hPa | 0 mm | 0 m/s | - | - |
| 1778036794 | 20.56° C | 58% | 1014.3 hPa | 0 mm | 0 m/s | - | - |
| 1778036503 | 20.56° C | 59% | 1014.4 hPa | 0 mm | 0 m/s | - | - |
| 1778035893 | 20.56° C | 59% | 1014.5 hPa | 0 mm | 0 m/s | - | - |
| 1778035606 | 20.56° C | 58% | 1014.7 hPa | 0 mm | 0 m/s | - | - |
| 1778035293 | 20.56° C | 57% | 1014.5 hPa | 0 mm | 0 m/s | - | - |
| 1778034993 | 20.56° C | 56% | 1014.3 hPa | 0 mm | 0 m/s | - | - |
| 1778034692 | 20.56° C | 57% | 1014.3 hPa | 0 mm | 0 m/s | - | - |
| 1778034400 | 20.56° C | 57% | 1014.2 hPa | 0 mm | 0 m/s | - | - |
| 1778034092 | 20.56° C | 56% | 1014.1 hPa | 0 mm | 0 m/s | - | - |
| 1778033792 | 20.56° C | 56% | 1014 hPa | 0 mm | 0 m/s | - | - |
| 1778033193 | 21.11° C | 56% | 1014 hPa | 0 mm | 0 m/s | - | - |
| 1778031393 | 21.11° C | 54% | 1014 hPa | 0 mm | 0 m/s | - | - |
| 1778030947 | 21.67° C | 52% | 1014 hPa | 0 mm | 0 m/s | - | - |
| 1778030792 | 21.67° C | 52% | 1014 hPa | 0 mm | 0 m/s | - | - |
| 1778030493 | 21.67° C | 51% | 1013.9 hPa | 0 mm | 0 m/s | - | - |
| 1778030225 | 22.22° C | 50% | 1013.8 hPa | 0 mm | 0 m/s | - | - |
| 1778030192 | 22.22° C | 50% | 1013.8 hPa | 0 mm | 0 m/s | - | - |
* Rain latest hour (hover to see other rain measurements)
** Current wind speed in m/s (hover to see current wind gust speed)